Weather History for KMHK - October, 2012

Change the Weather History Date:

Sunday, October 21, 2012

  Actual Average Record
Temperature  
Mean Temperature 64 °F 53 °F  
Max Temperature 82 °F 66 °F 82 °F (1999)
Min Temperature 46 °F 40 °F 30 °F (1999)
Degree Days  
Heating Degree Days 1 12  
Month to date heating degree days 196 188  
Since 1 July heating degree days 278 258  
Cooling Degree Days 0 0  
Month to date cooling degree days 7 21  
Year to date cooling degree days 1771 1358  
Growing Degree Days 14 (Base 50)    
Moisture  
Dew Point 58 °F    
Average Humidity 76    
Maximum Humidity 93    
Minimum Humidity 58    
Precipitation  
Precipitation 0.00 in 0.07 in 0.15 in (2008)
Month to date precipitation 0.43 1.61  
Year to date precipitation 20.64 29.32  
Sea Level Pressure  
Sea Level Pressure 29.70 in    
Wind  
Wind Speed 6 mph (SE)    
Max Wind Speed 21 mph    
Max Gust Speed 26 mph    
Visibility 10 miles    
Events      
T = Trace of Precipitation, MM = Missing Value Source: NWS Daily Summary

Daily Weather History Graph

Daily Weather History Graph

Search for Another Location

Airport or City:

Trip Planner

Search our weather history database for the weather conditions in past years. The results will help you decide how hot, cold, wet, or windy it might be!

Date:

Astronomy

Oct. 21, 2012 Rise Set
Actual Time 7:43 AM CDT 6:38 PM CDT
Civil Twilight 7:15 AM CDT 7:05 PM CDT
Nautical Twilight 6:44 AM CDT 7:37 PM CDT
Astronomical Twilight 6:13 AM CDT 8:08 PM CDT
Moon 2:03 PM CDT (10/21) No Moon Set
Length of Visible Light 11h 50m
Length of Day
10h 55m
Waxing Crescent, 45% of the Moon is Illuminated
Oct 21
Waxing Crescent
Oct 21
First Quarter
Oct 29
Full
Nov 6
Last Quarter
Nov 13
New

Hourly Weather History & Observations

Time (CDT) Temp. Heat Index Dew Point Humidity Pressure Visibility Wind Dir Wind Speed Gust Speed Precip Events Conditions
12:52 AM 62.1 °F - 48.0 °F 60% 29.69 in 10.0 mi Calm Calm - N/A   Clear
1:52 AM 53.6 °F - 46.4 °F 77% 29.71 in 10.0 mi Calm Calm - N/A   Clear
2:52 AM 52.0 °F - 46.0 °F 80% 29.70 in 10.0 mi Calm Calm - N/A   Clear
3:52 AM 50.0 °F - 46.0 °F 86% 29.70 in 10.0 mi Calm Calm - N/A   Clear
4:52 AM 48.2 °F - 46.4 °F 93% 29.71 in 10.0 mi Calm Calm - N/A   Clear
5:52 AM 48.0 °F - 45.0 °F 89% 29.71 in 10.0 mi Calm Calm - N/A   Clear
6:52 AM 48.0 °F - 46.0 °F 93% 29.72 in 6.0 mi Calm Calm - N/A   Clear
7:52 AM 46.9 °F - 45.0 °F 93% 29.72 in 6.0 mi Calm Calm - N/A   Clear
8:52 AM 59.0 °F - 55.0 °F 87% 29.74 in 10.0 mi Calm Calm - N/A   Clear
9:52 AM 64.4 °F - 57.2 °F 77% 29.75 in 10.0 mi ENE 4.6 mph - N/A   Clear
10:52 AM 72.0 °F - 61.0 °F 68% 29.74 in 10.0 mi South 11.5 mph - N/A   Clear
11:52 AM 73.4 °F - 60.8 °F 65% 29.74 in 10.0 mi South 12.7 mph - N/A   Clear
12:52 PM 75.0 °F - 62.1 °F 64% 29.71 in 10.0 mi SE 15.0 mph 19.6 mph N/A   Clear
1:52 PM 75.0 °F - 62.1 °F 64% 29.70 in 10.0 mi SSE 12.7 mph - N/A   Partly Cloudy
2:52 PM 78.1 °F - 63.0 °F 60% 29.67 in 10.0 mi SE 12.7 mph - N/A   Clear
3:52 PM 79.0 °F - 64.0 °F 60% 29.66 in 10.0 mi SSE 11.5 mph 23.0 mph N/A   Scattered Clouds
4:52 PM 81.0 °F 82.7 °F 64.9 °F 58% 29.65 in 10.0 mi SSE 13.8 mph 18.4 mph N/A   Mostly Cloudy
5:52 PM 80.1 °F 82.1 °F 66.0 °F 62% 29.66 in 10.0 mi SE 12.7 mph - N/A   Clear
6:52 PM 77.0 °F - 66.9 °F 71% 29.67 in 10.0 mi ESE 8.1 mph - N/A   Clear
7:52 PM 73.9 °F - 66.0 °F 76% 29.68 in 9.0 mi East 5.8 mph - N/A   Clear
8:52 PM 73.0 °F - 66.0 °F 79% 29.68 in 9.0 mi East 4.6 mph - N/A   Clear
9:52 PM 75.0 °F - 66.9 °F 76% 29.69 in 10.0 mi Calm Calm - N/A   Clear
10:52 PM 75.0 °F - 66.9 °F 76% 29.68 in 10.0 mi SSE 5.8 mph - N/A   Clear
11:52 PM 73.9 °F - 66.9 °F 79% 29.68 in 10.0 mi Variable 3.5 mph - N/A   Clear